Location: Saluda
(35.2377°N, 82.3468°W)
Time: 12:08:29
(UTC+00:00)

Transit 4A - Visible Passes

Search period start: 05 October 2022 00:00
Search period end: 15 October 2022 00:00
Orbit: 870 x 974 km, 66.8° (Epoch: 04 October)

Date Brightness Start Highest point End Pass type
(mag) Time Alt. Az. Time Alt. Az. Time Alt. Az.
08 Oct 10.5 09:47:40 10° NNE 09:50:26 13° NE 09:53:10 10° ENE visible
09 Oct 9.8 00:49:36 10° SSE 00:50:28 14° SSE 00:50:28 14° SSE visible
09 Oct 10.2 09:55:53 10° N 10:00:03 20° NE 10:04:10 10° E visible
10 Oct 8.9 00:58:08 10° S 01:01:31 31° SSE 01:01:31 31° SSE visible
10 Oct 9.7 10:04:32 10° N 10:09:33 29° NE 10:14:31 10° ESE visible
11 Oct 7.8 01:07:01 10° SSW 01:12:37 68° SSE 01:12:37 68° SSE visible
11 Oct 10.6 02:56:03 10° W 02:56:15 11° W 02:56:15 11° W visible
11 Oct 9.0 10:13:25 10° NNW 10:18:57 43° ENE 10:24:26 10° SE visible
11 Oct 9.4 23:33:37 10° SE 23:36:47 14° ESE 23:39:56 10° ENE visible
12 Oct 8.0 01:16:15 10° SSW 01:22:27 74° WNW 01:23:40 57° N visible
12 Oct 10.7 08:40:09 10° NE 08:40:48 10° NE 08:41:25 10° NE visible
12 Oct 8.2 10:22:28 10° NNW 10:28:15 66° ENE 10:34:01 10° SE visible
12 Oct 8.9 23:41:02 10° SSE 23:45:46 23° ESE 23:50:26 10° NE visible
13 Oct 8.6 01:25:46 10° SW 01:31:45 49° WNW 01:34:35 29° N visible
13 Oct 10.4 08:47:09 10° NNE 08:50:28 15° NE 08:53:47 10° E visible
13 Oct 7.7 10:31:40 10° NNW 10:37:30 82° WSW 10:43:18 10° SSE visible
13 Oct 8.4 23:49:14 10° S 23:54:50 36° ESE 00:00:18 10° NE visible
14 Oct 9.4 01:35:37 10° WSW 01:41:08 33° NW 01:45:12 16° N visible
14 Oct 9.9 08:55:33 10° N 09:00:03 22° NE 09:04:30 10° ESE visible
14 Oct 7.9 10:41:02 10° NW 10:46:39 52° WSW 10:52:16 10° S visible
